Devils Lake, ND

11:10 AM CST on December 13, 2017 (GMT -0600)
Devils Lake Municipal

Weather History for KDVL - February, 2014

Change the Weather History Date:

Saturday, February 22, 2014

  Actual Average Record
Temperature  
Mean Temperature 2 °F -  
Max Temperature 8 °F 28 °F 49 °F (1958)
Min Temperature -5 °F 10 °F -23 °F (2015)
Degree Days  
Heating Degree Days 64    
Moisture  
Dew Point -10 °F    
Average Humidity 59    
Maximum Humidity 66    
Minimum Humidity 52    
Precipitation  
Precipitation 0.00 in - - ()
Sea Level Pressure  
Sea Level Pressure 29.95 in    
Wind  
Wind Speed 19 mph (WNW)    
Max Wind Speed 25 mph    
Max Gust Speed -    
Visibility 10 miles    
Events      
Averages and records for this station are not official NWS values.
T = Trace of Precipitation, MM = Missing Value Source: NWS Daily Summary

Daily Weather History Graph

Daily Weather History Graph

Search for Another Location

Airport or City:

Trip Planner

Search our weather history database for the weather conditions in past years. The results will help you decide how hot, cold, wet, or windy it might be!

Date:

Astronomy

Feb. 22, 2014 Rise Set
Actual Time 7:29 AM CST 6:09 PM CST
Civil Twilight 6:58 AM CST 6:40 PM CST
Nautical Twilight 6:22 AM CST 7:16 PM CST
Astronomical Twilight 5:46 AM CST 7:52 PM CST
Moon 1:37 AM CST (2/22) 11:09 AM CST (2/22)
Length of Visible Light 11h 42m
Length of Day
10h 39m
Waning Gibbous, 50% of the Moon is Illuminated
Feb 22
Waning Gibbous
Mar 1
New
Mar 8
First Quarter
Mar 16
Full
Mar 23
Last Quarter

Hourly Weather History & Observations

Time (CST) Temp. Windchill Dew Point Humidity Pressure Visibility Wind Dir Wind Speed Gust Speed Precip Events Conditions
12:15 AM -2.2 °F -22.9 °F -13.0 °F 60% 29.79 in 10.0 mi WNW 16.1 mph - N/A   Clear
12:35 AM -2.2 °F -23.5 °F -13.0 °F 60% 29.79 in 10.0 mi WNW 17.3 mph - N/A   Clear
12:55 AM -2.2 °F -24.1 °F -13.0 °F 60% 29.80 in 10.0 mi WNW 18.4 mph - N/A   Clear
1:15 AM -2.2 °F -24.1 °F -13.0 °F 60% 29.80 in 10.0 mi WNW 18.4 mph - N/A   Clear
1:35 AM -2.2 °F -24.7 °F -13.0 °F 60% 29.80 in 10.0 mi WNW 19.6 mph - N/A   Clear
1:55 AM -2.2 °F -24.7 °F -14.8 °F 55% 29.81 in 10.0 mi WNW 19.6 mph - N/A   Clear
2:15 AM -2.2 °F -24.1 °F -14.8 °F 55% 29.82 in 10.0 mi WNW 18.4 mph - N/A   Clear
2:35 AM -2.2 °F -24.1 °F -14.8 °F 55% 29.82 in 10.0 mi WNW 18.4 mph - N/A   Clear
2:55 AM -2.2 °F -23.5 °F -14.8 °F 55% 29.82 in 10.0 mi WNW 17.3 mph - N/A   Clear
3:15 AM -4.0 °F -25.8 °F -14.8 °F 60% 29.83 in 10.0 mi WNW 17.3 mph - N/A   Clear
3:35 AM -4.0 °F -27.0 °F -14.8 °F 60% 29.83 in 10.0 mi WNW 19.6 mph - N/A   Clear
3:55 AM -4.0 °F -25.8 °F -16.6 °F 55% 29.83 in 10.0 mi WNW 17.3 mph - N/A   Clear
4:15 AM -5.8 °F -28.8 °F -16.6 °F 60% 29.83 in 10.0 mi WNW 18.4 mph - N/A   Clear
4:35 AM -5.8 °F -28.2 °F -16.6 °F 60% 29.84 in 10.0 mi WNW 17.3 mph - N/A   Clear
4:55 AM -5.8 °F -29.4 °F -16.6 °F 60% 29.84 in 10.0 mi WNW 19.6 mph - N/A   Clear
5:15 AM -5.8 °F -29.4 °F -14.8 °F 65% 29.85 in 10.0 mi WNW 19.6 mph - N/A   Clear
5:35 AM -5.8 °F -29.4 °F -16.6 °F 60% 29.85 in 10.0 mi WNW 19.6 mph - N/A   Clear
5:55 AM -5.8 °F -28.2 °F -16.6 °F 60% 29.86 in 10.0 mi WNW 17.3 mph - N/A   Clear
6:15 AM -5.8 °F -28.8 °F -16.6 °F 60% 29.86 in 10.0 mi WNW 18.4 mph - N/A   Clear
6:35 AM -5.8 °F -29.4 °F -16.6 °F 60% 29.87 in 10.0 mi WNW 19.6 mph - N/A   Clear
6:55 AM -5.8 °F -29.4 °F -16.6 °F 60% 29.87 in 10.0 mi WNW 19.6 mph - N/A   Clear
7:15 AM -5.8 °F -28.8 °F -16.6 °F 60% 29.88 in 10.0 mi WNW 18.4 mph - N/A   Clear
7:35 AM -5.8 °F -28.8 °F -16.6 °F 60% 29.88 in 10.0 mi WNW 18.4 mph - N/A   Clear
7:55 AM -5.8 °F -28.2 °F -16.6 °F 60% 29.89 in 10.0 mi WNW 17.3 mph - N/A   Clear
8:15 AM -5.8 °F -29.4 °F -16.6 °F 60% 29.90 in 10.0 mi WNW 19.6 mph - N/A   Clear
8:35 AM -5.8 °F -29.9 °F -16.6 °F 60% 29.90 in 10.0 mi WNW 20.7 mph - N/A   Clear
8:55 AM -4.0 °F -26.4 °F -14.8 °F 60% 29.91 in 10.0 mi WNW 18.4 mph - N/A   Clear
9:15 AM -2.2 °F -23.5 °F -14.8 °F 55% 29.92 in 10.0 mi WNW 17.3 mph - N/A   Clear
9:35 AM -2.2 °F -24.7 °F -14.8 °F 55% 29.92 in 10.0 mi WNW 19.6 mph - N/A   Clear
9:55 AM -2.2 °F -24.7 °F -13.0 °F 60% 29.92 in 10.0 mi WNW 19.6 mph - N/A   Clear
10:15 AM -0.4 °F -21.7 °F -11.2 °F 60% 29.93 in 10.0 mi WNW 18.4 mph - N/A   Clear
10:35 AM -0.4 °F -22.8 °F - N/A% 29.94 in 10.0 mi WNW 20.7 mph - N/A   Clear
10:55 AM -0.4 °F -22.8 °F -11.2 °F 60% 29.94 in 10.0 mi WNW 20.7 mph - N/A   Clear
11:15 AM 1.4 °F -19.9 °F -9.4 °F 61% 29.95 in 10.0 mi WNW 19.6 mph - N/A   Clear
11:35 AM 1.4 °F -21.0 °F -9.4 °F 61% 29.94 in 10.0 mi WNW 21.9 mph - N/A   Clear
11:55 AM 3.2 °F -18.6 °F -7.6 °F 61% 29.95 in 10.0 mi NW 21.9 mph - N/A   Clear
12:15 PM 3.2 °F -17.1 °F -7.6 °F 61% 29.96 in 10.0 mi WNW 18.4 mph - N/A   Clear
12:35 PM 5.0 °F -16.2 °F -7.6 °F 56% 29.97 in 10.0 mi WNW 21.9 mph - N/A   Clear
12:55 PM 5.0 °F -15.2 °F -7.6 °F 56% 29.96 in 10.0 mi WNW 19.6 mph - N/A   Clear
1:15 PM 5.0 °F -16.7 °F -7.6 °F 56% 29.96 in 10.0 mi WNW 23.0 mph - N/A   Clear
1:35 PM 6.8 °F -13.8 °F -5.8 °F 56% 29.96 in 10.0 mi WNW 21.9 mph - N/A   Clear
1:55 PM 6.8 °F -13.8 °F -5.8 °F 56% 29.97 in 10.0 mi WNW 21.9 mph - N/A   Clear
2:15 PM 6.8 °F -13.8 °F -4.0 °F 61% 29.97 in 10.0 mi NW 21.9 mph - N/A   Clear
2:35 PM 6.8 °F -13.8 °F -4.0 °F 61% 29.98 in 10.0 mi WNW 21.9 mph - N/A   Clear
2:55 PM 8.6 °F -11.9 °F -4.0 °F 57% 29.98 in 10.0 mi WNW 23.0 mph - N/A   Clear
3:15 PM 8.6 °F -12.7 °F -5.8 °F 52% 29.99 in 10.0 mi NW 25.3 mph - N/A   Clear
3:35 PM 6.8 °F -15.1 °F -5.8 °F 56% 29.99 in 10.0 mi NW 25.3 mph - N/A   Clear
3:55 PM 6.8 °F -13.8 °F -5.8 °F 56% 29.99 in 10.0 mi NW 21.9 mph - N/A   Clear
4:15 PM 6.8 °F -12.9 °F -5.8 °F 56% 30.00 in 10.0 mi NW 19.6 mph - N/A   Clear
4:35 PM 6.8 °F -13.8 °F -5.8 °F 56% 30.01 in 10.0 mi WNW 21.9 mph - N/A   Clear
4:55 PM 6.8 °F -12.9 °F -5.8 °F 56% 30.02 in 10.0 mi WNW 19.6 mph - N/A   Clear
5:15 PM 6.8 °F -12.4 °F -5.8 °F 56% 30.02 in 10.0 mi WNW 18.4 mph - N/A   Clear
5:35 PM 6.8 °F -13.4 °F -5.8 °F 56% 30.02 in 10.0 mi WNW 20.7 mph - N/A   Clear
5:55 PM 6.8 °F -12.9 °F -5.8 °F 56% 30.02 in 10.0 mi WNW 19.6 mph - N/A   Clear
6:15 PM 6.8 °F -13.4 °F -5.8 °F 56% 30.03 in 10.0 mi WNW 20.7 mph - N/A   Clear
6:35 PM 5.0 °F -15.7 °F -5.8 °F 61% 30.03 in 10.0 mi WNW 20.7 mph - N/A   Clear
6:55 PM 5.0 °F -15.2 °F -5.8 °F 61% 30.04 in 10.0 mi WNW 19.6 mph - N/A   Clear
7:15 PM 5.0 °F -15.2 °F -5.8 °F 61% 30.05 in 10.0 mi WNW 19.6 mph - N/A   Clear
7:35 PM 5.0 °F -15.2 °F -5.8 °F 61% 30.05 in 10.0 mi WNW 19.6 mph - N/A   Partly Cloudy
7:55 PM 5.0 °F -15.2 °F -5.8 °F 61% 30.06 in 10.0 mi WNW 19.6 mph - N/A   Mostly Cloudy
8:15 PM 5.0 °F -15.2 °F -7.6 °F 56% 30.06 in 10.0 mi WNW 19.6 mph - N/A   Partly Cloudy
8:35 PM 5.0 °F -15.7 °F -7.6 °F 56% 30.06 in 10.0 mi WNW 20.7 mph - N/A   Clear
8:55 PM 3.2 °F -15.9 °F -7.6 °F 61% 30.06 in 10.0 mi WNW 16.1 mph - N/A   Clear
9:15 PM 3.2 °F -16.5 °F -7.6 °F 61% 30.07 in 10.0 mi WNW 17.3 mph - N/A   Clear
9:35 PM 1.4 °F -18.8 °F -7.6 °F 66% 30.08 in 10.0 mi WNW 17.3 mph - N/A   Clear
9:55 PM 1.4 °F -17.6 °F -7.6 °F 66% 30.08 in 10.0 mi WNW 15.0 mph - N/A   Clear
10:15 PM 1.4 °F -16.9 °F -9.4 °F 61% 30.08 in 10.0 mi WNW 13.8 mph - N/A   Clear
10:35 PM 1.4 °F -17.6 °F -9.4 °F 61% 30.09 in 10.0 mi WNW 15.0 mph - N/A   Clear
10:55 PM 1.4 °F -18.2 °F -7.6 °F 66% 30.09 in 10.0 mi WNW 16.1 mph - N/A   Clear
11:15 PM 1.4 °F -18.2 °F -9.4 °F 61% 30.09 in 10.0 mi WNW 16.1 mph - N/A   Clear
11:35 PM 1.4 °F -18.8 °F -7.6 °F 66% 30.09 in 10.0 mi WNW 17.3 mph - N/A   Clear
11:55 PM 1.4 °F -18.8 °F -7.6 °F 66% 30.09 in 10.0 mi WNW 17.3 mph - N/A   Clear